TIANZHOU-4

Last updated on Tue Nov 15 2022 00:02:07 GMT+0000 (Greenwich Mean Time)

1 52509U 22050A 22318.57939650 .00025245 00000+0 28953-3 0 9997 2 52509 41.4778 22.6881 0014143 301.5508 202.1768 15.61375696 29507
UTC large
Height (km)
Speed (km/s)
/
Latitude / Longitude
Inclination (degrees)
Orbital Period (minutes)
Azimuth
Elevation
Range (km)
Doppler Factor

Next 0 passes for location: London (51.5072 / 0.1276)

Sorry there are no passes over London.